IT9IRS-1 Weather Reports


Display with metric or nautical units.
time (UTC)temp
F
wind
direction
speed
MPH
gust
MPH
rain 1hr
in
rain 24hr
in
rain mn
in
humidity
%
barometer
mb
20260906085004 86 280 13.0 17.0 0.00 0.00 0.00 72 1016.3
20260906084504 86 283 12.0 15.0 0.00 0.00 0.00 72 1016.3
20260906084004 86 284 12.0 15.0 0.00 0.00 0.00 73 1016.3
20260906083503 86 279 11.0 17.0 0.00 0.00 0.00 74 1016.3
20260906083004 85 274 11.0 17.0 0.00 0.00 0.00 75 1016.3
20260906082503 85 270 11.0 18.0 0.00 0.00 0.00 75 1016.3
20260906082214 85 274 10.0 18.0 0.00 0.00 0.00 75 1016.3
20260906081504 85 291 11.0 14.0 0.00 0.00 0.00 76 1016.3
20260906081003 85 286 10.0 14.0 0.00 0.00 0.00 76 1016.3
20260906080503 85 275 9.0 15.0 0.00 0.00 0.00 76 1016.3
20260906080216 85 289 10.0 15.0 0.00 0.00 0.00 76 1016.3
20260906075503 85 305 7.0 13.0 0.00 0.00 0.00 76 1016.3
20260906075004 85 322 6.0 9.0 0.00 0.00 0.00 76 1016.3
20260906074504 84 321 7.0 9.0 0.00 0.00 0.00 76 1016.3
20260906074003 84 318 7.0 11.0 0.00 0.00 0.00 77 1016.3
20260906073503 83 321 6.0 11.0 0.00 0.00 0.00 79 1016.3
20260906073003 83 324 9.0 13.0 0.00 0.00 0.00 81 1016.3
20260906072503 83 313 10.0 13.0 0.00 0.00 0.00 82 1016.3
20260906072003 82 305 9.0 13.0 0.00 0.00 0.00 85 1016.3
20260906071503 82 313 8.0 13.0 0.00 0.00 0.00 85 1016.3
20260906071003 82 323 10.0 13.0 0.00 0.00 0.00 85 1016.3
20260906070503 81 319 10.0 13.0 0.00 0.00 0.00 86 1016.3
20260906070005 81 315 9.0 10.0 0.00 0.00 0.00 87 1016.3
20260906065503 81 318 7.0 10.0 0.00 0.00 0.00 88 1016.3
20260906065003 80 313 6.0 10.0 0.00 0.00 0.00 89 1016.3
20260906064503 80 312 7.0 10.0 0.00 0.00 0.00 89 1016.3
20260906064003 79 318 6.0 10.0 0.00 0.00 0.00 89 1016.3
20260906063504 79 331 5.0 9.0 0.00 0.00 0.00 90 1016.3
20260906063003 78 326 5.0 9.0 0.00 0.00 0.00 90 1016.3
20260906062503 77 320 4.0 5.0 0.00 0.00 0.00 91 1016.3
20260906062006 77 320 3.0 5.0 0.00 0.00 0.00 91 1016.3
20260906061504 76 353 2.0 4.0 0.00 0.00 0.00 92 1015.3
20260906061004 75 360 2.0 4.0 0.00 0.00 0.00 92 1015.3
20260906060504 74 6 2.0 4.0 0.00 0.00 0.00 92 1015.3
20260906060004 73 360 2.0 4.0 0.00 0.00 0.00 93 1015.3
20260906055715 73 351 2.0 3.0 0.00 0.00 0.00 93 1015.3
20260906055004 72 345 3.0 4.0 0.00 0.00 0.00 92 1015.3
20260906054504 71 346 3.0 5.0 0.00 0.00 0.00 92 1015.3
20260906054214 71 347 2.0 5.0 0.00 0.00 0.00 92 1015.3
20260906053504 70 15 2.0 5.0 0.00 0.00 0.00 91 1015.3
20260906053215 70 13 3.0 5.0 0.00 0.00 0.00 90 1015.3
20260906052505 70 356 3.0 4.0 0.00 0.00 0.00 90 1015.3
20260906052004 70 356 3.0 4.0 0.00 0.00 0.00 89 1015.3
20260906051504 70 360 3.0 4.0 0.00 0.00 0.00 89 1015.3
20260906051004 70 2 3.0 4.0 0.00 0.00 0.00 89 1015.3
20260906050504 69 12 3.0 4.0 0.00 0.00 0.00 88 1015.3
20260906050004 69 19 3.0 3.0 0.00 0.00 0.00 88 1015.3
20260906045504 69 14 2.0 3.0 0.00 0.00 0.00 87 1015.3
20260906045003 69 3 1.0 2.0 0.00 0.00 0.00 87 1015.3
20260906044504 69 315 0.0 1.0 0.00 0.00 0.00 87 1015.3
20260906044215 70 315 0.0 1.0 0.00 0.00 0.00 87 1015.3
20260906043504 70 353 1.0 2.0 0.00 0.00 0.00 86 1015.3
20260906043004 70 321 1.0 3.0 0.00 0.00 0.00 86 1015.3
20260906042503 70 315 1.0 3.0 0.00 0.00 0.00 86 1015.3
20260906042003 70 331 1.0 3.0 0.00 0.00 0.00 86 1015.3
20260906041504 70 360 1.0 2.0 0.00 0.00 0.00 86 1015.3
20260906041004 70 360 1.0 2.0 0.00 0.00 0.00 86 1015.3
20260906040715 70 360 0.0 2.0 0.00 0.00 0.00 86 1015.3
20260906040003 70 360 0.0 2.0 0.00 0.00 0.00 86 1015.3
20260906035503 70 0 0.0 0.0 0.00 0.00 0.00 86 1015.3
20260906035003 70 315 1.0 3.0 0.00 0.00 0.00 86 1015.3
20260906034503 71 329 2.0 3.0 0.00 0.00 0.00 86 1015.3
20260906034003 71 326 2.0 3.0 0.00 0.00 0.00 86 1015.3
20260906033504 71 315 2.0 3.0 0.00 0.00 0.00 85 1015.3
20260906033003 71 332 3.0 5.0 0.00 0.00 0.00 85 1015.3
20260906032503 71 342 3.0 5.0 0.00 0.00 0.00 85 1015.3
20260906032003 71 337 3.0 5.0 0.00 0.00 0.00 85 1015.3
20260906031715 71 337 3.0 6.0 0.00 0.00 0.00 84 1015.3
20260906031004 71 327 3.0 6.0 0.00 0.00 0.00 84 1015.3
20260906030503 71 320 2.0 4.0 0.00 0.00 0.00 84 1015.3
20260906030214 71 322 2.0 5.0 0.00 0.00 0.00 84 1015.3
20260906025503 71 317 4.0 5.0 0.00 0.00 0.00 83 1015.3
20260906025003 71 315 4.0 6.0 0.00 0.00 0.00 83 1015.3
20260906024504 72 310 5.0 8.0 0.00 0.00 0.00 83 1015.3
20260906024003 72 306 5.0 8.0 0.00 0.00 0.00 83 1015.3
20260906023503 72 304 4.0 7.0 0.00 0.00 0.00 83 1015.3
20260906023004 72 301 4.0 7.0 0.00 0.00 0.00 83 1015.3
20260906022504 72 303 4.0 5.0 0.00 0.00 0.00 83 1015.3
20260906022004 72 313 3.0 4.0 0.00 0.00 0.00 83 1015.3
20260906021504 72 325 3.0 5.0 0.00 0.00 0.00 82 1015.3
20260906021004 72 330 2.0 5.0 0.00 0.00 0.00 82 1015.3
20260906020504 72 325 1.0 2.0 0.00 0.00 0.00 82 1015.3
20260906020004 72 355 1.0 3.0 0.00 0.00 0.00 82 1015.3
20260906015504 72 360 2.0 4.0 0.00 0.00 0.00 82 1015.3
20260906015004 72 360 3.0 4.0 0.00 0.00 0.00 81 1015.3
20260906014504 72 360 3.0 4.0 0.00 0.00 0.00 80 1015.3
20260906014004 72 360 3.0 4.0 0.00 0.00 0.00 79 1015.3
20260906013505 72 360 2.0 4.0 0.00 0.00 0.00 78 1015.3
20260906013217 72 360 2.0 4.0 0.00 0.00 0.00 77 1015.3
20260906012715 72 352 2.0 3.0 0.00 0.00 0.00 77 1015.3
20260906012004 72 355 2.0 3.0 0.00 0.00 0.00 76 1015.3
20260906011716 72 4 2.0 3.0 0.00 0.00 0.00 76 1015.3
20260906011004 72 3 3.0 4.0 0.00 0.00 0.00 75 1015.3
20260906010504 73 351 2.0 4.0 0.00 0.00 0.00 75 1015.3
20260906010215 73 347 2.0 4.0 0.00 0.00 0.00 75 1015.3
20260906005504 74 360 1.0 2.0 0.00 0.00 0.00 74 1015.3
20260906005003 74 360 2.0 3.0 0.00 0.00 0.00 74 1015.3
20260906004504 75 360 1.0 3.0 0.00 0.00 0.00 74 1015.3
20260906004003 75 360 1.0 3.0 0.00 0.00 0.00 74 1015.3
20260906003503 75 360 1.0 3.0 0.00 0.00 0.00 74 1015.3
20260906003003 76 360 0.0 2.0 0.00 0.00 0.00 74 1015.3
20260906002503 76 0 0.0 0.0 0.00 0.00 0.00 74 1015.3
20260906002214 76 270 0.0 2.0 0.00 0.00 0.00 74 1015.3
20260906001503 76 270 1.0 4.0 0.00 0.00 0.00 74 1015.3
20260906001003 76 5 1.0 3.0 0.00 0.00 0.00 74 1015.3
20260906000503 76 14 1.0 3.0 0.00 0.00 0.00 74 1015.3
20260906000003 76 15 1.0 3.0 0.00 0.00 0.00 74 1015.3
20260905235503 76 166 1.0 2.0 0.00 0.00 0.00 74 1015.3
20260905235003 76 177 1.0 2.0 0.00 0.00 0.00 73 1015.3
20260905234503 76 327 2.0 5.0 0.00 0.00 0.00 73 1015.3
20260905234213 76 326 4.0 6.0 0.00 0.00 0.00 73 1015.3
20260905233503 76 319 4.0 6.0 0.00 0.00 0.00 73 1015.3
20260905233003 76 318 3.0 4.0 0.00 0.00 0.00 73 1015.3
20260905232503 76 336 2.0 4.0 0.00 0.00 0.00 73 1015.3
20260905232003 76 343 3.0 5.0 0.00 0.00 0.00 73 1015.3
20260905231503 76 326 4.0 5.0 0.00 0.00 0.00 73 1015.3
20260905231003 76 326 4.0 6.0 0.00 0.00 0.00 73 1015.3
20260905230503 77 326 5.0 6.0 0.00 0.00 0.00 73 1015.3
20260905230216 77 326 5.0 7.0 0.00 0.00 0.00 73 1015.3
20260905225503 77 326 5.0 7.0 0.00 0.00 0.00 74 1015.3
20260905225003 77 324 5.0 6.0 0.00 0.00 0.00 73 1015.3
20260905224715 77 320 5.0 7.0 0.00 0.00 0.00 73 1015.3
20260905224004 78 321 4.0 7.0 0.00 0.00 0.00 74 1015.3
20260905223504 78 318 3.0 5.0 0.00 0.00 0.00 74 1015.3
20260905223214 78 325 3.0 5.0 0.00 0.00 0.00 74 1015.3
20260905222504 78 345 4.0 5.0 0.00 0.00 0.00 74 1015.3
20260905222004 78 346 3.0 5.0 0.00 0.00 0.00 74 1015.3
20260905221718 78 352 3.0 4.0 0.00 0.00 0.00 74 1015.3
20260905221004 78 337 3.0 4.0 0.00 0.00 0.00 74 1015.3
20260905220504 78 337 5.0 9.0 0.00 0.00 0.00 74 1015.3
20260905220004 78 337 5.0 9.0 0.00 0.00 0.00 74 1015.3
20260905215715 77 332 4.0 7.0 0.00 0.00 0.00 74 1015.3
20260905215004 77 330 6.0 9.0 0.00 0.00 0.00 74 1015.3
20260905214504 77 333 7.0 9.0 0.00 0.00 0.00 74 1015.3
20260905214004 77 315 7.0 8.0 0.00 0.00 0.00 73 1015.3
20260905213504 77 319 5.0 8.0 0.00 0.00 0.00 73 1015.3
20260905213004 77 328 4.0 6.0 0.00 0.00 0.00 73 1015.3
20260905212504 77 321 4.0 6.0 0.00 0.00 0.00 73 1015.3
20260905212004 77 319 5.0 7.0 0.00 0.00 0.00 72 1015.3
20260905211504 77 320 5.0 7.0 0.00 0.00 0.00 72 1015.3
20260905211003 78 330 5.0 7.0 0.00 0.00 0.00 72 1015.3
20260905210715 78 340 5.0 8.0 0.00 0.00 0.00 71 1015.3
20260905210004 78 331 6.0 9.0 0.00 0.00 0.00 71 1015.3
20260905205504 78 305 4.0 6.0 0.00 0.00 0.00 71 1015.3
20260905205003 78 302 2.0 5.0 0.00 0.00 0.00 71 1015.3
20260905204503 78 318 2.0 4.0 0.00 0.00 0.00 71 1015.3
20260905204004 79 306 2.0 4.0 0.00 0.00 0.00 71 1015.3
20260905203503 79 327 5.0 7.0 0.00 0.00 0.00 71 1015.3
20260905203003 79 332 4.0 7.0 0.00 0.00 0.00 71 1015.3
20260905202503 79 315 2.0 5.0 0.00 0.00 0.00 71 1015.3
20260905202004 79 332 1.0 2.0 0.00 0.00 0.00 70 1015.3
20260905201503 79 349 2.0 4.0 0.00 0.00 0.00 71 1015.3
20260905201217 79 346 2.0 4.0 0.00 0.00 0.00 70 1015.3
20260905200503 79 353 2.0 4.0 0.00 0.00 0.00 70 1015.3
20260905200003 79 347 2.0 4.0 0.00 0.00 0.00 70 1015.3
20260905195503 80 339 2.0 4.0 0.00 0.00 0.00 70 1015.3
20260905195004 80 347 2.0 4.0 0.00 0.00 0.00 70 1015.3
20260905194503 80 351 2.0 4.0 0.00 0.00 0.00 70 1015.3
20260905194215 80 347 2.0 3.0 0.00 0.00 0.00 69 1015.3
20260905193503 81 343 2.0 3.0 0.00 0.00 0.00 68 1015.3
20260905193216 81 343 1.0 3.0 0.00 0.00 0.00 68 1015.3
20260905192714 81 3 1.0 2.0 0.00 0.00 0.00 68 1015.3
20260905192003 81 351 1.0 2.0 0.00 0.00 0.00 68 1015.3
20260905191715 82 348 1.0 2.0 0.00 0.00 0.00 68 1015.3
20260905191213 82 333 2.0 3.0 0.00 0.00 0.00 68 1015.3
20260905190503 82 311 1.0 3.0 0.00 0.00 0.00 68 1015.3
20260905190003 83 346 1.0 3.0 0.00 0.00 0.00 68 1015.3
20260905185503 83 360 2.0 3.0 0.00 0.00 0.00 68 1015.3
20260905185003 83 345 2.0 5.0 0.00 0.00 0.00 68 1015.3
20260905184504 83 335 4.0 5.0 0.00 0.00 0.00 68 1015.3
20260905184004 84 327 5.0 6.0 0.00 0.00 0.00 68 1015.3
20260905183506 84 318 6.0 10.0 0.00 0.00 0.00 68 1015.3
20260905183004 84 325 7.0 10.0 0.00 0.00 0.00 68 1015.3
20260905182504 84 332 5.0 9.0 0.00 0.00 0.00 67 1015.3
20260905182004 84 319 6.0 10.0 0.00 0.00 0.00 66 1015.3
20260905181504 85 313 7.0 10.0 0.00 0.00 0.00 66 1014.3
20260905181213 85 313 6.0 10.0 0.00 0.00 0.00 66 1014.3
20260905180504 85 326 7.0 9.0 0.00 0.00 0.00 65 1014.3
20260905180004 85 331 7.0 11.0 0.00 0.00 0.00 65 1014.3
20260905175504 85 335 7.0 11.0 0.00 0.00 0.00 65 1014.3
20260905175004 86 328 7.0 11.0 0.00 0.00 0.00 64 1014.3
20260905174504 86 324 8.0 11.0 0.00 0.00 0.00 64 1014.3
20260905174216 86 326 8.0 11.0 0.00 0.00 0.00 64 1014.3
20260905173504 86 320 8.0 11.0 0.00 0.00 0.00 63 1014.3
20260905173004 87 315 8.0 11.0 0.00 0.00 0.00 63 1014.3
20260905172504 87 319 9.0 13.0 0.00 0.00 0.00 62 1014.3
20260905172004 87 319 9.0 13.0 0.00 0.00 0.00 62 1014.3
20260905171716 87 322 8.0 11.0 0.00 0.00 0.00 62 1014.3
20260905171005 87 329 9.0 12.0 0.00 0.00 0.00 61 1014.3
20260905170503 88 323 10.0 16.0 0.00 0.00 0.00 60 1014.3
20260905170215 88 316 11.0 16.0 0.00 0.00 0.00 59 1014.3
20260905165504 89 322 11.0 15.0 0.00 0.00 0.00 58 1014.3
20260905165003 89 321 12.0 15.0 0.00 0.00 0.00 58 1014.3
20260905164503 89 323 13.0 18.0 0.00 0.00 0.00 57 1014.3
20260905164003 89 320 12.0 18.0 0.00 0.00 0.00 56 1014.3
20260905163504 89 309 11.0 17.0 0.00 0.00 0.00 56 1014.3
20260905163004 90 310 12.0 16.0 0.00 0.00 0.00 55 1014.3
20260905162503 90 312 11.0 16.0 0.00 0.00 0.00 57 1014.3
20260905162004 90 300 12.0 17.0 0.00 0.00 0.00 57 1014.3
20260905161504 89 305 14.0 20.0 0.00 0.00 0.00 57 1014.3
20260905161003 90 305 14.0 20.0 0.00 0.00 0.00 57 1014.3
20260905160503 90 294 14.0 20.0 0.00 0.00 0.00 57 1014.3
20260905160003 90 298 15.0 21.0 0.00 0.00 0.00 57 1014.3
20260905155503 90 289 16.0 21.0 0.00 0.00 0.00 57 1014.3
20260905155003 90 290 15.0 19.0 0.00 0.00 0.00 57 1014.3
20260905154503 89 304 14.0 21.0 0.00 0.00 0.00 59 1014.3
20260905154003 90 300 15.0 21.0 0.00 0.00 0.00 59 1014.3
20260905153503 90 293 15.0 19.0 0.00 0.00 0.00 59 1014.3
20260905153213 89 292 15.0 19.0 0.00 0.00 0.00 59 1014.3
20260905152503 89 296 14.0 19.0 0.00 0.00 0.00 59 1014.3
20260905152003 90 301 15.0 24.0 0.00 0.00 0.00 60 1014.3
20260905151503 90 293 17.0 24.0 0.00 0.00 0.00 58 1014.3
20260905151215 90 294 19.0 24.0 0.00 0.00 0.00 57 1014.3
20260905150503 90 294 17.0 21.0 0.00 0.00 0.00 56 1014.3
20260905150003 91 285 16.0 20.0 0.00 0.00 0.00 56 1014.3
20260905145503 91 280 16.0 22.0 0.00 0.00 0.00 56 1014.3
20260905145003 91 278 15.0 22.0 0.00 0.00 0.00 55 1014.3
20260905144503 91 274 15.0 23.0 0.00 0.00 0.00 54 1014.3
20260905144004 91 276 18.0 23.0 0.00 0.00 0.00 56 1014.3
20260905143504 91 283 16.0 18.0 0.00 0.00 0.00 57 1014.3
20260905143004 90 281 16.0 21.0 0.00 0.00 0.00 57 1015.3
20260905142504 90 286 17.0 23.0 0.00 0.00 0.00 59 1015.3
20260905142004 90 299 16.0 23.0 0.00 0.00 0.00 59 1015.3
20260905141504 91 300 16.0 19.0 0.00 0.00 0.00 58 1015.3
20260905141005 91 289 17.0 20.0 0.00 0.00 0.00 60 1015.3
20260905140504 91 274 17.0 27.0 0.00 0.00 0.00 61 1015.3
20260905140004 90 272 18.0 27.0 0.00 0.00 0.00 61 1015.3
20260905135504 90 284 17.0 22.0 0.00 0.00 0.00 60 1015.3
20260905135218 90 294 17.0 21.0 0.00 0.00 0.00 60 1015.3
20260905134716 91 291 16.0 21.0 0.00 0.00 0.00 59 1015.3
20260905134004 91 292 14.0 22.0 0.00 0.00 0.00 59 1015.3
20260905133504 91 286 13.0 22.0 0.00 0.00 0.00 58 1015.3
20260905133004 91 282 14.0 17.0 0.00 0.00 0.00 58 1015.3
20260905132504 91 277 14.0 21.0 0.00 0.00 0.00 58 1015.3
20260905132216 91 276 15.0 21.0 0.00 0.00 0.00 57 1015.3
20260905131504 90 293 14.0 21.0 0.00 0.00 0.00 59 1015.3
20260905131004 91 292 14.0 20.0 0.00 0.00 0.00 56 1015.3
20260905130504 90 286 15.0 21.0 0.00 0.00 0.00 57 1015.3
20260905130004 91 286 14.0 21.0 0.00 0.00 0.00 54 1015.3
20260905125504 91 279 15.0 21.0 0.00 0.00 0.00 53 1015.3
20260905125004 91 282 15.0 21.0 0.00 0.00 0.00 51 1015.3
20260905124717 91 293 13.0 21.0 0.00 0.00 0.00 51 1015.3
20260905124004 91 288 12.0 21.0 0.00 0.00 0.00 51 1015.3
20260905123718 91 289 11.0 15.0 0.00 0.00 0.00 52 1015.3
20260905123004 91 291 11.0 15.0 0.00 0.00 0.00 50 1015.3
20260905122503 91 285 12.0 18.0 0.00 0.00 0.00 51 1015.3
20260905122216 91 295 13.0 18.0 0.00 0.00 0.00 51 1015.3
20260905121504 90 296 13.0 20.0 0.00 0.00 0.00 52 1015.3
20260905121004 90 276 12.0 20.0 0.00 0.00 0.00 52 1015.3
20260905120503 89 270 12.0 20.0 0.00 0.00 0.00 53 1015.3
20260905120003 89 267 12.0 17.0 0.00 0.00 0.00 54 1016.3
20260905115503 88 252 11.0 13.0 0.00 0.00 0.00 56 1016.3
20260905115003 88 211 11.0 17.0 0.00 0.00 0.00 62 1016.3
20260905114503 87 187 12.0 17.0 0.00 0.00 0.00 64 1016.3
20260905114003 87 180 13.0 17.0 0.00 0.00 0.00 65 1016.3
20260905113503 86 186 11.0 15.0 0.00 0.00 0.00 66 1016.3
20260905113003 86 187 11.0 15.0 0.00 0.00 0.00 66 1016.3
20260905112503 86 180 11.0 13.0 0.00 0.00 0.00 66 1016.3
20260905112003 86 180 10.0 13.0 0.00 0.00 0.00 66 1016.3
20260905111503 85 180 12.0 14.0 0.00 0.00 0.00 66 1016.3
20260905111004 85 186 11.0 14.0 0.00 0.00 0.00 65 1016.3
20260905110503 85 181 10.0 17.0 0.00 0.00 0.00 65 1016.3
20260905110003 85 174 11.0 17.0 0.00 0.00 0.00 65 1016.3
20260905105504 85 180 12.0 17.0 0.00 0.00 0.00 64 1016.3
20260905105004 85 180 12.0 14.0 0.00 0.00 0.00 63 1016.3
20260905104505 85 180 11.0 14.0 0.00 0.00 0.00 62 1016.3
20260905104004 85 180 10.0 15.0 0.00 0.00 0.00 62 1016.3
20260905103504 85 180 9.0 15.0 0.00 0.00 0.00 62 1016.3
20260905103004 84 184 8.0 11.0 0.00 0.00 0.00 62 1016.3
20260905102504 85 181 8.0 10.0 0.00 0.00 0.00 61 1016.3
20260905102218 84 181 9.0 15.0 0.00 0.00 0.00 61 1016.3
20260905101504 85 180 10.0 15.0 0.00 0.00 0.00 57 1016.3
20260905101004 85 180 8.0 11.0 0.00 0.00 0.00 56 1016.3
20260905100504 85 180 8.0 11.0 0.00 0.00 0.00 55 1016.3
20260905100004 85 183 8.0 11.0 0.00 0.00 0.00 55 1016.3
20260905095504 84 196 8.0 11.0 0.00 0.00 0.00 55 1016.3
20260905095004 84 218 7.0 14.0 0.00 0.00 0.00 55 1016.3
20260905094504 84 198 7.0 14.0 0.00 0.00 0.00 58 1016.3
20260905094004 83 180 8.0 11.0 0.00 0.00 0.00 58 1016.3
20260905093504 83 180 9.0 12.0 0.00 0.00 0.00 59 1016.3
20260905093004 83 180 9.0 12.0 0.00 0.00 0.00 57 1016.3
20260905092504 83 185 8.0 12.0 0.00 0.00 0.00 56 1016.3
20260905092003 84 187 7.0 11.0 0.00 0.00 0.00 56 1016.3
20260905091504 83 203 9.0 12.0 0.00 0.00 0.00 56 1016.3
20260905091214 83 207 9.0 12.0 0.00 0.00 0.00 56 1016.3
20260905090504 83 199 7.0 10.0 0.00 0.00 0.00 56 1016.3
20260905090004 84 195 7.0 10.0 0.00 0.00 0.00 56 1016.3
20260905085503 83 180 7.0 9.0 0.00 0.00 0.00 57 1016.3